TimeCDT,TemperatureF,Dew PointF,Humidity,Sea Level PressureIn,VisibilityMPH,Wind Direction,Wind SpeedMPH,Gust SpeedMPH,PrecipitationIn,Events,Conditions,WindDirDegrees,DateUTC
12:55 AM,67.8,61.0,79,29.73,10.0,West,5.8,-,N/A,,Overcast,260,2012-10-02 05:55:00
1:55 AM,67.3,61.0,80,29.73,10.0,WSW,3.5,-,N/A,,Overcast,250,2012-10-02 06:55:00
2:55 AM,66.0,60.6,83,29.74,10.0,WSW,4.6,-,N/A,,Scattered Clouds,240,2012-10-02 07:55:00
3:55 AM,64.0,60.1,87,29.75,10.0,Calm,Calm,-,N/A,,Clear,0,2012-10-02 08:55:00
4:55 AM,60.6,59.5,96,29.75,10.0,Calm,Calm,-,N/A,,Clear,0,2012-10-02 09:55:00
5:55 AM,63.1,61.0,93,29.78,10.0,West,3.5,-,N/A,,Overcast,280,2012-10-02 10:55:00
6:55 AM,63.9,60.8,90,29.80,10.0,WNW,5.8,-,N/A,,Overcast,290,2012-10-02 11:55:00
7:55 AM,64.9,61.2,88,29.82,10.0,West,3.5,-,N/A,,Overcast,280,2012-10-02 12:55:00
8:55 AM,68.0,61.0,78,29.85,10.0,West,8.1,-,N/A,,Scattered Clouds,280,2012-10-02 13:55:00
9:55 AM,70.9,60.6,70,29.86,10.0,WNW,9.2,-,N/A,,Mostly Cloudy,290,2012-10-02 14:55:00
10:59 AM,73.2,60.3,64,29.87,10.0,SW,9.2,-,N/A,,Mostly Cloudy,230,2012-10-02 15:59:00
11:55 AM,73.4,61.2,65,29.87,10.0,West,8.1,-,N/A,,Mostly Cloudy,270,2012-10-02 16:55:00
12:55 PM,75.2,60.8,61,29.87,10.0,WNW,9.2,-,N/A,,Mostly Cloudy,290,2012-10-02 17:55:00
1:55 PM,75.9,60.4,59,29.87,10.0,West,8.1,-,N/A,,Mostly Cloudy,270,2012-10-02 18:55:00
2:55 PM,78.3,60.4,54,29.87,10.0,WNW,8.1,-,N/A,,Mostly Cloudy,300,2012-10-02 19:55:00
3:55 PM,78.3,59.0,51,29.88,10.0,West,10.4,-,N/A,,Mostly Cloudy,280,2012-10-02 20:55:00
4:55 PM,78.1,59.0,52,29.88,10.0,West,9.2,-,N/A,,Scattered Clouds,280,2012-10-02 21:55:00
5:55 PM,75.2,59.2,57,29.89,10.0,WNW,4.6,-,N/A,,Scattered Clouds,300,2012-10-02 22:55:00
6:55 PM,70.3,59.5,69,29.91,10.0,NW,3.5,-,N/A,,Scattered Clouds,310,2012-10-02 23:55:00
7:55 PM,65.7,60.3,83,29.94,10.0,Calm,Calm,-,N/A,,Scattered Clouds,0,2012-10-03 00:55:00
8:55 PM,63.5,59.9,88,29.97,10.0,Calm,Calm,-,N/A,,Scattered Clouds,0,2012-10-03 01:55:00
9:55 PM,62.4,59.2,89,30.00,10.0,Calm,Calm,-,N/A,,Partly Cloudy,0,2012-10-03 02:55:00
10:55 PM,61.7,58.6,90,30.01,10.0,North,4.6,-,N/A,,Partly Cloudy,10,2012-10-03 03:55:00
11:55 PM,60.8,58.8,93,30.02,10.0,Calm,Calm,-,N/A,,Partly Cloudy,0,2012-10-03 04:55:00